User: anonymous   Login
Location: STAR School
(35.3054°N, 111.2976°W)
Time: 04:29:01
(UTC-07:00)
Language:

Transit 4A - Orbit

View from above orbital plane
View from above orbital plane
View from above satellite
View from above satellite

Ground track
Ground track

The orbit data is extracted from the following two-line orbital elements,

1   116U 61015A   19139.09128054 -.00000055  00000-0  16663-4 0  9990
2   116  66.8096  94.7068 0082686 284.7995  74.3934 13.91752435937282
Epoch (UTC): 19 May 2019 02:11:26
Eccentricity: 0.0082686
inclination: 66.8096°
perigee height: 862 km
apogee height: 983 km
right ascension of ascending node: 94.7068°
argument of perigee: 284.7995°
revolutions per day: 13.91752435
mean anomaly at epoch: 74.3934°
orbit number at epoch: 93728

The dashed part of the orbit path shows where the satellite is in the earth's shadow,  

DLR